Location: Miles
(41.4492°N, 81.6087°W)
Time: 18:48:47
(UTC+00:00)

Tiros 1 despin weight - Pass Details

Date: 21 September 2024
Orbit: 573 x 615 km, 48.2° (Epoch: 04 October)

Event Time Altitude Azimuth Distance (km) Brightness Sun altitude
Rises 06:03:08 0° 231° (SW) 2,831 - -46.9°
Reaches altitude 10° 06:05:25 10° 228° (SW) 1,939 - -46.8°
Maximum altitude 06:09:50 66° 147° (SSE) 666 - -46.5°
Drops below altitude 10° 06:14:20 10° 66° (ENE) 1,971 - -46.3°
Sets 06:16:40 0° 63° (ENE) 2,883 - -46.1°
